Wind_Speed
26 28 30 31 32 32 32 32 33 34 34 34 35 35 36 35 33 32 31 30 29 28 28 29 30 31 33 33 33 33 34 34 33 32 32 32 32 32 30 28 26 24 23
25 26 27 29 30 31 32 34 36 37 38 38 39 39 39 38 37 36 35 34 33 32 30 29 29 29 31 32 32 32 33 33 33 32 31 31 31 31 30 29 26 25 22
25 27 28 30 32 34 36 38 39 40 41 42 42 42 42 41 41 39 38 38 37 36 35 33 32 31 30 30 31 31 31 31 32 32 30 29 30 30 29 28 26 25 23
27 29 31 34 36 37 38 40 41 42 43 44 44 44 44 44 43 42 42 42 41 41 41 39 38 36 34 33 32 32 31 31 31 32 31 30 29 29 29 29 27 26 24
30 32 34 35 37 38 39 40 41 43 44 45 46 47 47 47 47 46 46 45 45 46 46 46 44 42 40 38 36 34 33 32 31 32 32 31 31 31 31 30 29 28 26
33 34 35 36 37 38 40 41 43 45 47 49 50 52 52 52 52 51 51 50 50 49 50 50 50 49 47 44 42 40 38 36 34 33 33 34 34 34 34 33 32 30 28
34 34 34 36 37 39 41 43 45 46 48 50 52 52 52 51 51 50 50 50 51 52 53 53 54 54 53 51 49 47 45 42 39 37 36 36 37 37 37 36 35 33 31
32 34 36 37 39 40 42 43 45 47 48 48 46 44 43 42 42 42 43 44 45 48 51 53 56 57 58 57 56 54 52 49 46 43 41 39 39 40 40 39 38 36 33
34 36 37 39 41 42 43 45 48 47 44 40 37 36 37 38 40 41 42 44 45 46 48 50 53 56 59 61 61 60 58 56 53 50 47 44 43 42 42 42 41 39 37
36 38 40 41 43 45 47 47 47 44 39 36 35 36 37 39 41 42 44 46 47 49 51 52 53 55 57 60 63 64 64 62 60 57 53 50 48 46 45 45 44 43 41
37 39 40 42 44 46 47 46 44 41 38 37 37 39 42 44 46 48 50 51 53 54 56 57 58 58 59 60 62 64 66 67 65 64 62 56 52 50 49 48 47 46 44
38 39 41 42 44 45 45 44 42 40 39 39 41 44 46 49 51 54 55 57 58 59 60 61 62 62 62 62 63 64 66 68 69 69 68 64 59 56 53 52 51 49 47
38 39 41 43 45 45 44 43 42 41 41 42 45 47 50 53 55 58 59 60 61 61 61 61 63 64 65 66 65 65 65 67 69 71 71 71 67 61 57 55 54 52 50
39 41 42 44 45 45 44 43 42 42 43 45 48 50 53 56 58 60 62 62 63 63 62 62 62 63 64 66 66 66 66 66 68 71 73 74 73 68 63 58 56 55 53
41 42 43 44 45 45 44 43 42 42 44 47 50 52 54 56 58 60 61 61 61 60 59 58 59 61 62 64 65 65 66 66 67 68 71 74 76 73 69 63 57 56 55
41 42 43 44 45 45 44 42 42 43 46 49 51 53 54 56 58 58 57 57 55 52 51 51 53 54 57 59 61 63 63 63 63 65 67 70 74 76 73 68 63 58 57
43 43 44 45 46 46 44 43 43 45 48 50 52 53 54 56 57 56 54 52 48 45 44 44 46 49 51 53 56 59 59 59 57 59 61 64 69 72 75 73 69 63 58
45 45 46 46 47 47 45 44 45 46 49 51 52 53 55 56 55 53 51 47 42 38 36 36 37 42 46 48 51 54 54 53 51 50 52 56 59 66 71 74 72 68 62
48 48 48 48 48 47 46 44 45 47 49 51 52 53 54 54 53 50 47 43 37 33 30 29 30 33 39 43 46 47 47 47 45 43 44 47 50 56 64 69 71 68 65
50 49 49 49 48 47 46 44 45 47 49 50 50 52 53 52 50 48 44 38 33 28 25 22 23 27 32 37 40 42 42 42 41 40 39 40 43 47 53 59 65 68 68
51 50 50 49 49 48 46 44 45 47 48 49 49 50 51 50 48 46 41 35 30 25 21 17 17 22 27 32 36 38 40 40 39 38 36 35 36 39 43 48 54 61 65
51 51 49 49 49 48 46 44 44 46 47 47 48 49 49 47 45 43 39 34 29 24 19 14 13 18 24 28 33 36 39 39 37 35 34 32 31 32 35 39 45 52 59
51 50 49 48 48 48 46 44 44 45 45 46 46 47 47 45 43 40 37 33 28 23 17 11 8 14 20 25 31 35 37 37 37 34 31 29 28 28 29 32 38 45 51
51 49 48 47 47 47 46 44 43 44 44 45 45 45 45 43 41 39 36 32 27 22 16 9 6 12 18 24 28 33 35 35 34 32 30 28 27 27 27 28 31 38 45
50 48 47 47 47 47 45 43 42 43 43 43 43 44 44 42 39 37 34 31 27 22 16 9 4 9 16 22 26 30 32 33 33 31 30 29 28 27 26 27 28 33 40
49 47 46 46 46 46 44 42 41 42 42 42 41 42 42 40 37 35 32 30 27 22 16 10 2 8 14 19 24 27 29 30 29 29 28 28 29 29 27 27 28 30 37
Wind_Direction
289 291 294 296 297 299 299 299 299 299 298 297 296 295 295 294 293 291 288 286 284 283 280 274 270 266 261 259 258 256 254 252 251 251 250 250 250 249 250 251 251 249 247
297 299 302 302 302 302 301 301 300 299 297 295 294 293 291 290 289 288 285 283 280 278 277 275 270 267 263 259 258 257 254 252 250 249 248 248 247 247 247 247 246 244 243
302 303 303 303 302 302 301 299 298 296 294 293 291 290 288 286 285 283 280 278 276 274 272 270 269 267 266 262 258 256 255 253 250 248 245 245 245 244 242 242 241 240 240
302 302 301 301 301 299 298 297 296 294 293 291 290 288 287 285 283 281 277 274 271 269 267 266 265 264 263 262 259 257 255 252 250 246 243 242 241 239 238 237 236 236 235
300 299 299 298 298 297 297 296 296 294 293 291 290 288 286 284 282 279 277 274 270 267 264 263 261 261 260 259 258 256 254 252 249 246 243 240 238 235 234 233 233 233 233
298 298 297 297 298 298 298 297 296 294 293 291 290 288 287 285 283 280 276 273 270 267 265 262 260 259 258 257 256 255 253 251 248 245 242 240 237 234 232 231 231 232 232
300 300 300 300 300 299 298 296 295 293 292 290 289 288 287 285 283 281 278 274 271 268 265 262 261 259 257 255 254 254 253 251 248 246 242 240 237 235 233 231 231 232 232
304 305 305 304 303 302 300 299 298 298 296 294 292 289 287 286 284 282 280 278 275 271 267 263 261 259 257 255 253 251 250 250 249 246 244 240 237 236 234 233 231 231 232
310 310 310 309 308 308 307 307 306 305 303 299 295 291 288 285 284 282 280 278 276 273 270 267 263 260 257 255 253 251 249 248 247 246 244 242 239 237 235 234 232 232 231
314 314 314 314 315 314 314 312 311 310 306 302 297 293 290 288 285 283 281 279 276 273 271 268 264 261 258 255 252 250 249 246 245 245 244 242 240 238 236 234 232 232 232
317 318 318 318 318 317 316 316 314 310 306 302 299 296 295 292 291 289 286 283 279 275 271 268 264 261 258 255 251 249 248 246 244 243 242 241 240 237 236 234 232 231 232
321 321 320 320 320 320 320 318 314 310 307 304 302 301 299 297 295 293 290 287 282 278 273 268 264 260 257 254 251 248 246 245 243 242 242 241 240 238 236 234 231 230 230
324 323 324 324 325 324 322 319 316 313 310 307 306 305 303 301 298 296 293 289 285 280 274 268 263 259 256 252 249 247 245 243 242 241 241 241 241 239 237 234 230 228 228
327 327 328 328 328 326 323 320 316 313 312 311 310 309 308 306 303 300 296 292 288 282 275 268 262 257 253 250 247 245 243 242 241 240 239 239 240 240 239 235 230 227 226
331 330 329 330 329 327 324 320 317 315 315 315 316 315 314 312 309 305 301 297 292 285 277 268 260 254 250 247 244 242 241 240 240 239 238 237 238 239 239 236 231 226 225
332 331 331 331 330 328 326 322 320 319 320 321 321 321 319 317 314 311 308 302 296 289 279 269 260 252 247 244 241 239 239 239 239 239 238 237 236 237 238 237 233 227 223
334 333 332 332 332 330 328 325 324 324 325 326 326 325 324 322 320 317 314 309 302 294 284 273 260 249 243 240 238 236 236 236 237 238 238 237 235 234 235 235 235 231 225
335 334 333 334 334 333 330 328 328 328 329 329 330 329 328 327 326 323 319 316 308 299 289 275 262 247 237 235 234 233 232 232 233 235 236 236 235 233 232 232 233 232 229
337 336 335 335 335 334 332 330 330 331 332 332 332 333 333 333 331 329 326 322 315 305 295 278 260 243 232 230 230 227 226 227 227 227 229 231 232 233 231 231 231 231 231
338 337 335 335 336 335 333 331 332 333 334 335 335 336 337 337 336 335 333 331 325 316 304 284 259 238 228 224 223 220 218 218 216 217 220 224 228 230 231 230 229 230 232
339 338 336 336 337 336 335 333 333 335 336 337 338 339 340 340 340 340 340 338 335 327 315 294 259 233 223 220 216 213 210 208 207 209 211 216 221 225 227 228 227 227 228
339 338 337 336 337 337 336 335 335 336 338 339 341 342 343 344 344 345 344 343 341 335 325 307 261 230 219 216 211 206 203 203 202 204 208 210 214 219 223 224 224 224 225
340 339 338 337 337 338 337 336 337 338 340 341 343 345 346 347 348 349 349 348 345 342 334 316 261 224 215 212 207 202 200 200 200 202 206 208 212 215 219 221 222 221 220
340 339 339 338 338 339 338 337 338 339 341 343 345 347 348 349 351 352 353 353 352 349 342 326 269 224 212 206 203 200 199 201 202 205 207 209 209 213 218 220 219 218 215
341 341 340 339 339 340 339 338 338 340 342 345 347 348 350 351 352 353 356 357 357 356 354 344 258 213 205 202 201 199 201 202 204 207 209 210 211 213 216 218 218 216 211
343 343 342 340 340 341 340 339 339 341 343 346 348 351 353 354 354 355 357 0 3 4 5 5 319 207 202 200 200 201 202 203 205 208 209 211 213 212 214 216 217 215 209
Height
5863 5861 5858 5855 5852 5848 5845 5842 5839 5836 5833 5830 5828 5825 5821 5818 5816 5813 5810 5807 5804 5802 5801 5800 5799 5799 5800 5802 5803 5804 5806 5807 5808 5810 5812 5814 5816 5819 5821 5823 5825 5828 5829
5856 5853 5850 5847 5844 5840 5837 5834 5831 5828 5825 5822 5818 5815 5812 5809 5807 5804 5802 5799 5797 5795 5794 5793 5792 5792 5793 5793 5795 5796 5798 5799 5801 5803 5805 5807 5810 5812 5814 5817 5819 5822 5824
5850 5847 5844 5840 5837 5833 5829 5826 5822 5818 5815 5812 5808 5805 5802 5799 5797 5794 5792 5790 5788 5787 5786 5785 5785 5785 5785 5786 5787 5788 5790 5791 5793 5795 5797 5799 5802 5805 5808 5810 5813 5816 5819
5844 5841 5838 5834 5830 5826 5822 5818 5813 5809 5805 5801 5797 5794 5791 5788 5786 5784 5782 5780 5779 5777 5776 5776 5776 5776 5777 5777 5778 5780 5781 5783 5785 5787 5790 5792 5795 5798 5801 5804 5807 5810 5813
5839 5835 5832 5827 5823 5819 5814 5809 5805 5800 5795 5790 5786 5782 5779 5776 5774 5772 5770 5769 5767 5766 5765 5765 5765 5766 5767 5768 5769 5771 5772 5774 5777 5779 5782 5785 5787 5790 5794 5798 5801 5804 5807
5833 5829 5824 5820 5816 5811 5806 5801 5796 5790 5784 5779 5774 5769 5766 5762 5760 5758 5756 5755 5754 5753 5753 5752 5753 5753 5755 5757 5759 5761 5763 5765 5767 5770 5773 5776 5780 5783 5787 5790 5794 5797 5801
5825 5821 5816 5812 5807 5802 5796 5791 5785 5780 5773 5767 5762 5757 5752 5748 5746 5743 5741 5740 5739 5738 5738 5738 5739 5739 5741 5743 5746 5749 5752 5755 5757 5760 5763 5767 5771 5775 5778 5782 5786 5790 5794
5817 5812 5807 5802 5797 5792 5786 5780 5773 5767 5760 5754 5748 5743 5739 5736 5733 5730 5727 5725 5724 5722 5722 5722 5723 5725 5726 5728 5731 5735 5738 5742 5746 5749 5753 5756 5760 5765 5769 5774 5778 5782 5787
5809 5803 5797 5792 5786 5779 5773 5766 5759 5752 5745 5739 5735 5732 5728 5725 5722 5718 5716 5713 5711 5709 5707 5707 5707 5708 5710 5712 5715 5719 5723 5727 5732 5736 5740 5745 5749 5754 5759 5764 5769 5774 5778
5800 5793 5787 5781 5774 5767 5760 5753 5745 5738 5733 5728 5724 5721 5717 5713 5709 5706 5702 5699 5696 5694 5692 5691 5690 5691 5692 5694 5698 5702 5706 5712 5716 5721 5726 5731 5736 5741 5747 5753 5758 5764 5769
5792 5785 5779 5772 5765 5757 5749 5741 5734 5728 5723 5718 5714 5709 5705 5700 5695 5690 5686 5682 5679 5676 5674 5673 5672 5672 5673 5675 5678 5683 5688 5694 5700 5705 5710 5715 5721 5727 5734 5740 5746 5753 5759
5785 5778 5771 5764 5756 5748 5740 5731 5724 5718 5713 5708 5703 5697 5691 5685 5679 5672 5666 5661 5657 5654 5651 5650 5650 5651 5652 5655 5658 5663 5668 5674 5681 5688 5693 5699 5705 5712 5719 5726 5734 5741 5747
5778 5771 5763 5755 5746 5737 5729 5721 5714 5708 5702 5696 5690 5683 5676 5668 5661 5653 5645 5638 5633 5629 5626 5625 5625 5626 5629 5632 5637 5642 5648 5654 5661 5669 5676 5682 5689 5697 5704 5712 5720 5728 5735
5770 5762 5754 5745 5736 5728 5719 5711 5704 5698 5691 5684 5676 5668 5660 5651 5641 5632 5623 5614 5607 5602 5598 5597 5598 5600 5603 5608 5614 5620 5627 5634 5641 5649 5657 5665 5672 5681 5690 5698 5706 5714 5722
5763 5754 5746 5738 5729 5719 5711 5703 5695 5688 5680 5671 5662 5653 5643 5632 5621 5610 5600 5590 5581 5574 5570 5569 5570 5573 5578 5584 5591 5599 5606 5614 5622 5629 5637 5646 5655 5664 5674 5684 5693 5701 5709
5757 5748 5740 5730 5721 5711 5702 5693 5685 5677 5668 5658 5648 5637 5626 5615 5603 5590 5578 5567 5557 5549 5544 5543 5545 5549 5554 5561 5569 5578 5586 5596 5604 5611 5618 5627 5637 5647 5658 5669 5679 5688 5697
5750 5741 5732 5722 5712 5702 5692 5683 5674 5665 5656 5645 5634 5623 5611 5599 5585 5572 5559 5547 5536 5529 5523 5521 5522 5527 5534 5542 5550 5559 5569 5579 5587 5594 5602 5610 5620 5630 5641 5653 5664 5674 5683
5743 5733 5724 5714 5704 5693 5683 5673 5664 5654 5644 5633 5622 5610 5597 5584 5570 5556 5543 5530 5520 5512 5507 5504 5504 5509 5516 5524 5533 5542 5553 5564 5573 5580 5587 5596 5604 5613 5624 5637 5649 5660 5671
5735 5725 5715 5705 5695 5685 5674 5664 5655 5645 5634 5623 5611 5598 5585 5572 5558 5544 5530 5518 5508 5500 5494 5491 5492 5495 5502 5510 5519 5530 5542 5552 5561 5568 5576 5583 5591 5598 5610 5623 5636 5647 5658
5728 5718 5708 5698 5688 5677 5667 5656 5647 5637 5626 5614 5602 5589 5576 5562 5548 5534 5521 5509 5499 5491 5486 5482 5482 5486 5492 5500 5509 5520 5531 5542 5551 5559 5566 5573 5580 5587 5596 5607 5620 5633 5645
5722 5712 5701 5691 5681 5671 5660 5649 5640 5629 5618 5607 5594 5582 5568 5555 5541 5528 5515 5504 5495 5487 5481 5477 5477 5480 5486 5493 5502 5512 5523 5533 5542 5550 5557 5564 5571 5578 5586 5596 5606 5619 5632
5715 5705 5695 5684 5674 5664 5653 5643 5633 5623 5612 5600 5588 5576 5563 5549 5536 5524 5512 5501 5492 5485 5479 5475 5475 5477 5482 5489 5497 5507 5517 5526 5535 5544 5551 5558 5565 5572 5579 5587 5595 5606 5619
5709 5699 5689 5678 5668 5657 5647 5637 5627 5617 5606 5595 5583 5571 5558 5545 5533 5522 5510 5500 5491 5484 5478 5475 5474 5476 5480 5486 5494 5503 5513 5522 5531 5539 5547 5554 5560 5566 5573 5580 5587 5596 5608
5703 5693 5683 5673 5662 5651 5641 5631 5621 5612 5601 5590 5579 5567 5555 5543 5531 5520 5510 5500 5492 5484 5479 5475 5474 5476 5480 5485 5492 5501 5509 5519 5527 5535 5543 5550 5556 5562 5568 5574 5581 5589 5599
5697 5687 5677 5667 5656 5646 5635 5625 5616 5607 5597 5586 5575 5564 5552 5541 5530 5520 5510 5501 5493 5485 5480 5476 5475 5477 5480 5484 5491 5498 5507 5515 5523 5531 5539 5545 5552 5557 5563 5570 5576 5583 5592
5692 5682 5671 5661 5651 5641 5631 5621 5612 5603 5593 5583 5572 5562 5551 5540 5530 5521 5512 5503 5495 5488 5483 5479 5477 5478 5480 5485 5490 5497 5505 5512 5520 5527 5534 5541 5547 5553 5559 5565 5571 5578 5585